Weather History for Sheridan, WY

Change the Weather History Date:

Saturday, January 4, 2014

  Actual Average Record
Temperature  
Mean Temperature 16 °F 23 °F  
Max Temperature 24 °F 36 °F 59 °F (1948)
Min Temperature 7 °F 11 °F -30 °F (1972)
Degree Days  
Heating Degree Days 49 42  
Month to date heating degree days 157 168  
Since 1 July heating degree days 3377 3351  
Cooling Degree Days 0 0  
Month to date cooling degree days 0 0  
Year to date cooling degree days 0 0  
Moisture  
Dew Point 10 °F    
Average Humidity 80    
Maximum Humidity 92    
Minimum Humidity 68    
Precipitation  
Precipitation 0.02 in 0.02 in 0.18 in (1916)
Month to date precipitation 0.27 0.07  
Year to date precipitation 0.27 0.07  
Sea Level Pressure  
Sea Level Pressure 30.15 in    
Wind  
Wind Speed 8 mph (NNW)    
Max Wind Speed 24 mph    
Max Gust Speed 29 mph    
Visibility 5 miles    
Events Fog , Snow    
T = Trace of Precipitation, MM = Missing Value Source: NWS Daily Summary

Daily Weather History Graph

Daily Weather History Graph

Search for Another Location

Airport:

Trip Planner

Search our weather history database for the weather conditions in past years. The results will help you decide how hot, cold, wet, or windy it might be!

Date:

Astronomy

Jan. 04, 2014 Rise Set
Actual Time 7:45 AM MST 4:40 PM MST
Civil Twilight 7:11 AM MST 5:14 PM MST
Nautical Twilight 6:35 AM MST 5:50 PM MST
Astronomical Twilight 5:59 AM MST 6:26 PM MST
Moon 9:42 AM MST (1/4) 9:15 PM MST (1/4)
Length of Visible Light 10h 02m
Length of Day
8h 55m
Waxing Crescent, 16% of the Moon is Illuminated
Jan 4
Waxing Crescent
Jan 7
First Quarter
Jan 15
Full
Jan 23
Last Quarter
Jan 30
New

Hourly Weather History & Observations

Time (MST) Temp. Windchill Dew Point Humidity Pressure Visibility Wind Dir Wind Speed Gust Speed Precip Events Conditions
12:00 AM 24.1 °F 12.0 °F 19.9 °F 84% 29.91 in 4.0 mi NW 13.8 mph - 0.00 in Snow Light Snow
12:29 AM 23.0 °F 10.6 °F 18.0 °F 81% 29.92 in 9.0 mi WNW 13.8 mph - 0.00 in   Overcast
12:53 AM 23.0 °F 12.4 °F 18.0 °F 81% 30.00 in 10.0 mi NW 10.4 mph - 0.00 in   Overcast
1:53 AM 21.9 °F 9.2 °F 17.1 °F 82% 30.04 in 10.0 mi NW 13.8 mph - N/A   Overcast
2:19 AM 21.9 °F 9.8 °F 18.0 °F 85% 29.95 in 9.0 mi NW 12.7 mph - 0.00 in Snow Light Snow
2:53 AM 21.9 °F 11.0 °F 17.1 °F 82% 30.07 in 10.0 mi NW 10.4 mph - 0.00 in   Overcast
3:53 AM 21.9 °F 11.7 °F 17.1 °F 82% 30.07 in 10.0 mi NW 9.2 mph - N/A   Overcast
4:53 AM 21.0 °F 14.6 °F 16.0 °F 81% 30.08 in 10.0 mi ENE 4.6 mph - N/A   Overcast
5:49 AM 21.2 °F 16.4 °F 15.8 °F 80% 29.98 in 1.8 mi ENE 3.5 mph - 0.00 in Snow Light Snow
5:53 AM 19.9 °F 13.4 °F 16.0 °F 85% 30.10 in 1.8 mi NE 4.6 mph - 0.00 in Snow Light Snow
6:02 AM 19.9 °F 14.9 °F 16.0 °F 85% 29.98 in 2.5 mi ENE 3.5 mph - 0.00 in Snow Light Snow
6:11 AM 19.9 °F 14.9 °F 16.0 °F 85% 29.98 in 4.0 mi NE 3.5 mph - 0.00 in Snow Light Snow
6:53 AM 18.0 °F - 15.1 °F 88% 30.14 in 8.0 mi Calm Calm - 0.00 in   Overcast
7:04 AM 17.1 °F - 14.0 °F 88% 29.99 in 9.0 mi Calm Calm - N/A   Overcast
7:53 AM 18.0 °F - 15.1 °F 88% 30.15 in 9.0 mi Calm Calm - 0.00 in   Overcast
8:42 AM 19.0 °F - 16.0 °F 88% 30.00 in 8.0 mi Calm Calm - N/A   Overcast
8:53 AM 19.0 °F - 17.1 °F 92% 30.16 in 9.0 mi Calm Calm - N/A   Overcast
9:53 AM 19.0 °F 12.3 °F 16.0 °F 88% 30.16 in 10.0 mi SE 4.6 mph - 0.00 in   Mostly Cloudy
10:53 AM 23.0 °F - 17.1 °F 78% 30.15 in 10.0 mi Calm Calm - N/A   Clear
11:53 AM 23.0 °F 15.8 °F 15.1 °F 72% 30.13 in 10.0 mi ESE 5.8 mph - N/A   Mostly Cloudy
12:53 PM 23.0 °F 17.0 °F 14.0 °F 68% 30.13 in 10.0 mi East 4.6 mph - N/A   Overcast
1:53 PM 23.0 °F 13.9 °F 15.1 °F 72% 30.16 in 10.0 mi NNE 8.1 mph - N/A   Mostly Cloudy
2:04 PM 19.9 °F 5.7 °F 15.1 °F 81% 30.02 in 4.0 mi North 16.1 mph - 0.00 in Snow Light Snow
2:18 PM 18.0 °F 2.6 °F 12.9 °F 81% 30.04 in 1.8 mi North 17.3 mph - 0.00 in Snow Light Snow
2:29 PM 15.1 °F -3.3 °F 10.9 °F 84% 30.07 in 0.8 mi NNW 23.0 mph 28.8 mph 0.00 in Snow Light Snow
2:39 PM 15.1 °F -2.5 °F 10.0 °F 80% 30.08 in 0.5 mi North 20.7 mph - 0.00 in Snow Snow
2:53 PM 12.9 °F -6.1 °F 9.0 °F 84% 30.27 in 0.5 mi NW 23.0 mph - 0.00 in Fog , Snow Snow
3:00 PM 12.0 °F -6.0 °F 8.1 °F 84% 30.10 in 0.2 mi NNW 19.6 mph - 0.00 in Fog , Snow Heavy Snow
3:11 PM 12.0 °F -5.1 °F 8.1 °F 84% 30.11 in 0.5 mi NW 17.3 mph - 0.00 in Fog , Snow Snow
3:34 PM 12.0 °F -6.0 °F 7.0 °F 80% 30.13 in 0.8 mi NW 19.6 mph - 0.00 in Snow Light Snow
3:42 PM 12.0 °F -5.1 °F 7.0 °F 80% 30.14 in 1.2 mi NW 17.3 mph - 0.00 in Snow Light Snow
3:53 PM 12.0 °F -6.9 °F 6.1 °F 77% 30.33 in 1.2 mi NW 21.9 mph - 0.00 in Snow Light Snow
4:12 PM 10.9 °F -8.8 °F 7.0 °F 84% 30.15 in 0.8 mi NW 23.0 mph - 0.00 in Snow Light Snow
4:19 PM 10.9 °F -8.3 °F 6.1 °F 81% 30.16 in 0.5 mi NW 21.9 mph - 0.00 in Snow Snow
4:31 PM 10.9 °F -7.9 °F 6.1 °F 81% 30.16 in 0.8 mi NW 20.7 mph - 0.00 in Snow Light Snow
4:41 PM 10.9 °F -7.0 °F 6.1 °F 81% 30.17 in 0.8 mi NNW 18.4 mph - 0.00 in Snow Light Snow
4:48 PM 10.4 °F -7.2 °F 6.8 °F 85% 30.17 in 1.2 mi NNW 17.3 mph - 0.00 in Snow Light Snow
4:53 PM 10.0 °F -8.1 °F 6.1 °F 84% 30.37 in 1.5 mi NNW 18.4 mph - 0.00 in Snow Light Snow
5:05 PM 10.0 °F -5.9 °F 5.0 °F 80% 30.17 in 2.0 mi NNW 13.8 mph - 0.00 in Snow Light Snow
5:19 PM 10.0 °F -5.9 °F 5.0 °F 80% 30.17 in 3.0 mi NNW 13.8 mph - 0.00 in Snow Light Snow
5:45 PM 10.0 °F -2.9 °F 6.1 °F 84% 30.16 in 2.5 mi WNW 9.2 mph - 0.00 in Snow Light Snow
5:51 PM 10.4 °F -3.3 °F 5.0 °F 79% 30.16 in 4.0 mi NW 10.4 mph - 0.00 in Snow Light Snow
5:53 PM 10.0 °F -3.7 °F 5.0 °F 80% 30.36 in 4.0 mi NW 10.4 mph - 0.00 in Snow Light Snow
6:25 PM 10.0 °F -5.2 °F 5.0 °F 80% 30.17 in 2.5 mi WNW 12.7 mph - 0.00 in Snow Light Snow
6:41 PM 10.0 °F -4.5 °F 5.0 °F 80% 30.17 in 4.0 mi WNW 11.5 mph - 0.01 in Snow Light Snow
6:50 PM 10.4 °F -3.3 °F 5.0 °F 79% 30.17 in 1.8 mi WNW 10.4 mph - 0.01 in Snow Light Snow
6:53 PM 10.0 °F -3.7 °F 5.0 °F 80% 30.38 in 1.5 mi NW 10.4 mph - 0.01 in Snow Light Snow
7:18 PM 9.0 °F -4.2 °F 5.0 °F 84% 30.18 in 3.0 mi NW 9.2 mph - 0.00 in Snow Light Snow
7:29 PM 9.0 °F -4.2 °F 5.0 °F 84% 30.18 in 9.0 mi WNW 9.2 mph - 0.00 in   Overcast
7:53 PM 9.0 °F -3.2 °F 3.9 °F 80% 30.39 in 10.0 mi WNW 8.1 mph - 0.00 in   Overcast
8:48 PM 8.6 °F -5.5 °F 3.2 °F 79% 30.19 in 4.0 mi NW 10.4 mph - 0.00 in Snow Light Snow
8:53 PM 9.0 °F -5.9 °F 3.9 °F 80% 30.40 in 3.0 mi NW 11.5 mph - 0.00 in Snow Light Snow
9:35 PM 9.0 °F -2.2 °F 3.9 °F 80% 30.19 in 5.0 mi WNW 6.9 mph - 0.00 in Snow Light Snow
9:53 PM 9.0 °F -2.2 °F 3.9 °F 80% 30.39 in 5.0 mi WNW 6.9 mph - 0.01 in Snow Light Snow
10:53 PM 9.0 °F 2.4 °F 3.9 °F 80% 30.38 in 7.0 mi NNW 3.5 mph - 0.00 in Snow Light Snow
11:53 PM 8.1 °F -0.5 °F 3.9 °F 83% 30.39 in 3.0 mi NW 4.6 mph - 0.00 in Snow Light Snow